Skip Page Navigation
NASA JPL Caltech
NASA Logo - Jet Propulsion Laboratory + View the NASA Portal
+ Center for Near-Earth Object Studies
JPL Home Earth Solar System Stars & Galaxies Technology
JPL Solar System Dynamics
BODIES ORBITS EPHEMERIDES TOOLS PHYSICAL DATA DISCOVERY FAQ SITE MAP
IMPORTANT: The SSD Announcement email list is now available. Major changes are coming in the near future, including possible hostname and/or URL changes. To be notified of such changes, subscribe to this email list.

Please visit this page for more details.


JPL Small-Body Database Browser
Search: [ help ]  
32904 (1994 PU24)
Classification: Main-belt Asteroid          SPK-ID: 2032904
Ephemeris | Orbit Diagram | Orbital Elements | Mission Design | Physical Parameters | Discovery Circumstances | Close-Approach Data ]

[ show orbit diagram ]
Orbital Elements at Epoch 2458600.5 (2019-Apr-27.0) TDB
Reference: JPL 19 (heliocentric ecliptic J2000)
 Element Value Uncertainty (1-sigma)   Units 
e .2160100444498836 3.9466e-08  
a 3.175410790115057 1.642e-08 au
q 2.489490164195664 1.2772e-07 au
i 2.788676965795728 3.9696e-06 deg
node 101.7734563786083 0.00010944 deg
peri 311.7429115173783 0.00011006 deg
M 70.35313579850585 1.1405e-05 deg
tp 2458196.594971465552
(2018-Mar-19.09497147)
6.4562e-05 TDB
period 2066.799277985978
5.66
1.6031e-05
4.389e-08
d
yr
n .1741823716673673 1.351e-09 deg/d
Q 3.861331416034451 1.9967e-08 au
  Orbit Determination Parameters
   # obs. used (total)      1168  
   data-arc span      25361 days (69.43 yr)  
   first obs. used      1949-11-19  
   last obs. used      2019-04-27  
   planetary ephem.      DE431  
   SB-pert. ephem.      SB431-N16  
   condition code      0  
   norm. resid. RMS      .51925  
   source      ORB  
   producer      Otto Matic  
   solution date      2019-Jul-13 01:34:09  

Additional Information
 Earth MOID = 1.50152 au 
 Jupiter MOID = 1.51532 au 
 T_jup = 3.162 
[ show covariance matrix ]

Ephemeris | Orbit Diagram | Orbital Elements | Mission Design | Physical Parameters | Discovery Circumstances | Close-Approach Data ]

Physical Parameter Table
Parameter Symbol Value Units Sigma Reference Notes
absolute magnitude H 14.1   n/a MPO299192  

32904 (1994 PU24)          Discovered 1994-Aug-12 by Elst, E. W. at La Silla
Reference: 20020128/Numbers.arcLast Updated: 2004-04-19

[ show close-approach data ]
Alternate Designations
 1994 PU24 = 2000 QP139 
Ephemeris | Orbit Diagram | Orbital Elements | Mission Design | Physical Parameters | Discovery Circumstances | Close-Approach Data ]
ABOUT SSD CREDITS/AWARDS PRIVACY/COPYRIGHT GLOSSARY LINKS
FirstGov
(server date/time)  
NASA Home Page
Site Manager:   Ryan S. Park
Webmaster  Alan B. Chamberlin